Regional Weather Roundup
Issued by NWS Midland/Odessa, TX

Home | Current Version | Previous Version | Text Only | Print | Product List | Glossary On
Versions: 1 2 3 4 5 6 7 8 9 10 11 12 13 14 15 16 17 18 19 20 21 22 23 24 25 26 27 28 29 30 31 32 33 34 35 36 37 38 39 40 41 42 43 44 45 46 47 48 49 50
000
ASUS44 KMAF 291510
RWRMAF
MIDLAND AREA WEATHER ROUNDUP
NATIONAL WEATHER SERVICE MIDLAND TX
1000 AM CDT SUN MAY 29 2016

...IN SOUTHWEST TEXAS AND SOUTHEAST NEW MEXICO...

CITY           SKY/WX    TMP DP  RH WIND       PRES   REMARKS
ALPINE         CLOUDY    74  62  65 E8        30.23S
ANDREWS        CLOUDY    70  60  71 S12G20    30.16R
ARTESIA        MOSUNNY   73  63  68 SE12      30.14R
BIG SPRING     PTSUNNY   74  58  58 SE18      30.15S
CARLSBAD       CLOUDY    74  64  71 SE10      30.12R
DRYDEN           N/A     68  65  90 E10       30.11R
FORT STOCKTON  NOT AVBL
GUAD PASS      NOT AVBL
HOBBS          CLOUDY    68  64  88 E13       30.18R
MARFA          MOSUNNY   72  61  68 SE8       30.21S
MIDLAND AIRPK  CLOUDY    75  60  58 SE17      30.15R
MIDLAND INTL   CLOUDY    74  60  61 SE20      30.14R
ODESSA         CLOUDY    73  59  61 SE17      30.15R
PECOS          MOSUNNY   78  66  65 E22G29    30.07R
PRESIDIO       FAIR      80  64  57 NE10      30.07R
SEMINOLE       CLOUDY    69  60  71 SE15      30.18R
SNYDER           N/A     71  62  72 S12       30.15R
WINK           NOT AVBL
$$
...OTHER STATIONS IN TEXAS...

CITY           SKY/WX    TMP DP  RH WIND       PRES   REMARKS
ABILENE        MOSUNNY   74  64  71 SE13      30.12S
AMARILLO       SUNNY     71  56  58 S14       30.19F
AUSTIN         CLOUDY    76  68  76 N13       30.10R
BROWNSVILLE    PTSUNNY   86  77  74 E10       30.03R
CORPUS CHRISTI CLOUDY    83  74  74 E12       30.10R
DALLAS FTW     PTSUNNY   74  66  76 SE9       30.09R
DEL RIO        CLOUDY    74  68  81 E10       30.09R
EL PASO        MOSUNNY   80   8   6 CALM      30.10R
HOUSTON INT    CLOUDY    79  74  84 SE7       30.12R
LUBBOCK        CLOUDY    72  58  61 S23       30.16R
SAN ANGELO     CLOUDY    76  60  57 S13G23    30.11R
SAN ANTONIO    CLOUDY    76  67  73 NE7       30.09R
WACO           PTSUNNY   78  63  59 E7        30.08F
WICHITA FALLS  NOT AVBL
$$
...OTHER LOCATIONS IN NEW MEXICO...

CITY           SKY/WX    TMP DP  RH WIND       PRES   REMARKS
ALAMAGORDO     SUNNY     77  23  13 NE5       30.13S
ALBUQUERQUE    MOSUNNY   66  22  18 S3        30.18R
CANNON AFB     PTSUNNY   69  60  71 S20       30.20R
CLOVIS         MOSUNNY   70  57  64 S18       30.20S
HOLLOMAN AFB   SUNNY     75  28  17 E3        30.11S
ROSWELL        CLOUDY    71  60  68 SE14      30.14S
RUIDOSO          N/A     66  10  11 E5        30.30S
SANTA FE       SUNNY     67  27  22 NE8       30.23R
TRUTH OR CONSE SUNNY     70  14  11 E3        30.16R
TUCUMCARI      CLOUDY    70  57  63 S7        30.18S
$$



USA.gov is the U.S. government's official web portal to all federal, state and local government web resources and services.